Location: Borotín
(49.5055°N, 14.6142°E)
Time: 12:01:47
(UTC+00:00)

Lacrosse 5 - Pass Details

Date: 27 May 2022
Orbit: 714 x 724 km, 57.0° (Epoch: 09 March)

Event Time Altitude Azimuth Distance (km) Brightness Sun altitude
Exits shadow 00:07:00 27° 163° (SSE) 1,382 2.9 -17.6°
Maximum altitude 00:08:33 32° 130° (SE) 1,228 2.8 -17.5°
Drops below altitude 10° 00:13:03 10° 68° (ENE) 2,217 4.9 -17.3°
Sets 00:15:38 0° 59° (ENE) 3,140 6.0 -17.2°
